EcAMSat (43019 NORAD) Tracking and Keplerian Element Data

This shows tracking and keplerian element data for the satellite.

Feedback or suggestion? Click here.




ElementValue
Catalog43019
NameEcAMSat
Epoch Orbit16178
Epoch Day80.41322874
Epoch Year2019
RAAN64.8581
Inclination51.6403
Eccentricity0.0005232
Argument of Perigee122.606
Mean Anonmoly237.5438
Mean Motion15.60093052
Decay Rate5.409E-05
L11 43019U 98067NG 19080.41322874 .00005409 00000-0 71601-4 0 9993
L22 43019 51.6403 64.8581 0005232 122.6060 237.5438 15.60093052161785

Live tracking and technical data element details for EcAMSat (NORAD 43019). EcAMSat can be tracked NOW for your location showing map with azimuth and elevation plus other details from your city location.

Track the satellite on the map from your city or location and see movement details for azimuth, elevation, latitude, longitude, range, height, and movement on the map or in text.







IsCatalogInMostPopularTable: catalog: 43019, numindb: 256
Update: records affected: 1



GetName: 43019 EcAMSat

Hit Count: updated at: Sun, 24 Mar 2019 09:10:57 GMT